Location: Katherine
(14.4670°S, 132.2670°E)
Time: 01:51:49
(UTC+09:30)

ISS - Pass Details

Date: 21 June 2018
Orbit: 402 x 406 km, 51.6° (Epoch: 22 June)

Event Time Altitude Azimuth Distance (km) Brightness Sun altitude
Rises 19:22:22 0° 319° (NW) 2,300 1.2 -14.6°
Reaches altitude 10° 19:24:26 10° 316° (NW) 1,446 0.0 -15.1°
Maximum altitude 19:27:40 68° 233° (SW) 437 -3.6 -15.8°
Enters shadow 19:29:06 30° 157° (SSE) 757 -2.8 -16.1°
